Tracking 24120 objects as of 4-Dec-2021
HD Live streaming from Space Station
objects crossing your sky now

METEOR M2-2

Track METEOR M2-2 now!
10-day predictions
METEOR M2-2 is classified as:


NORAD ID: 44387
Int'l Code: 2019-038A
Perigee: 818.4 km
Apogee: 821.7 km
Inclination: 98.7 °
Period: 101.1 minutes
Semi major axis: 7191 km
RCS: Unknown
Launch date: July 5, 2019
Source: Commonwealth of Independent States (former USSR) (CIS)
Launch site: VOSTOCHNY COSMODROME (VOSTO)

Uplink (MHz):
Downlink (MHz): 137.100/137.900
Beacon (MHz):
Mode: 72Kbps QPSK
Call sign:
Status:

aabbcc
Your satellite tracking list
Your tracking list is empty




NASA's NSSDC Master Catalog

Two Line Element Set (TLE):
1 44387U 19038A   21338.47870380  .00000000  00000-0  19288-4 0  9993
2 44387  98.6949 296.1257 0002304 101.7100 258.4339 14.23695049125661
Source of the keplerian elements: AFSPC